QPF
0.15 0.16 0.16 0.15 0.12 0.12 0.11 0.12 0.10 0.10 0.10 0.11 0.10 0.10 0.09 0.08 0.07 0.07 0.05 0.03 0.02 0.02 0.02 0.05 0.09 0.10 0.11 0.10 0.08 0.05 0.03 0.02 0.02 0.02 0.02 0.01 0.01 0.01 0.01 0.00 0.00 0.00 0.00
0.08 0.10 0.10 0.09 0.09 0.09 0.08 0.07 0.07 0.06 0.07 0.07 0.05 0.06 0.08 0.09 0.07 0.06 0.05 0.05 0.03 0.02 0.02 0.03 0.06 0.09 0.11 0.11 0.09 0.08 0.06 0.03 0.02 0.02 0.02 0.02 0.01 0.00 0.00 0.00 0.00 0.00 0.00
0.03 0.04 0.05 0.06 0.06 0.05 0.04 0.04 0.04 0.03 0.03 0.02 0.02 0.03 0.05 0.06 0.06 0.06 0.07 0.07 0.04 0.02 0.02 0.02 0.03 0.05 0.08 0.11 0.13 0.11 0.09 0.06 0.03 0.02 0.02 0.02 0.01 0.01 0.00 0.00 0.00 0.00 0.00
0.01 0.01 0.02 0.02 0.02 0.01 0.02 0.02 0.01 0.01 0.01 0.01 0.01 0.01 0.02 0.03 0.04 0.06 0.08 0.07 0.06 0.03 0.03 0.02 0.03 0.03 0.04 0.08 0.12 0.13 0.12 0.09 0.06 0.04 0.03 0.02 0.01 0.01 0.01 0.01 0.00 0.00 0.00
0.00 0.01 0.01 0.01 0.01 0.01 0.01 0.01 0.00 0.01 0.01 0.01 0.01 0.01 0.01 0.01 0.02 0.04 0.05 0.06 0.05 0.04 0.04 0.03 0.03 0.03 0.04 0.05 0.08 0.12 0.14 0.13 0.09 0.07 0.06 0.04 0.02 0.01 0.01 0.01 0.01 0.00 0.00
0.00 0.00 0.01 0.01 0.00 0.00 0.00 0.01 0.01 0.01 0.01 0.01 0.01 0.00 0.00 0.00 0.01 0.03 0.04 0.05 0.06 0.05 0.04 0.04 0.05 0.03 0.03 0.04 0.07 0.12 0.17 0.19 0.15 0.09 0.08 0.07 0.05 0.02 0.01 0.01 0.01 0.00 0.00
0.00 0.00 0.00 0.01 0.00 0.00 0.00 0.00 0.00 0.00 0.01 0.02 0.01 0.01 0.01 0.01 0.01 0.02 0.04 0.06 0.06 0.06 0.06 0.06 0.06 0.06 0.03 0.03 0.04 0.07 0.13 0.20 0.21 0.15 0.10 0.07 0.06 0.05 0.03 0.01 0.01 0.01 0.01
0.00 0.00 0.00 0.00 0.00 0.01 0.01 0.01 0.01 0.00 0.00 0.01 0.02 0.02 0.02 0.02 0.05 0.05 0.04 0.05 0.06 0.08 0.09 0.08 0.08 0.08 0.06 0.07 0.04 0.04 0.08 0.12 0.19 0.21 0.16 0.11 0.07 0.06 0.04 0.03 0.02 0.02 0.02
0.00 0.00 0.00 0.00 0.00 0.00 0.00 0.01 0.01 0.01 0.00 0.01 0.02 0.03 0.04 0.04 0.03 0.05 0.07 0.07 0.09 0.11 0.12 0.11 0.09 0.09 0.08 0.08 0.07 0.06 0.09 0.11 0.15 0.19 0.21 0.20 0.15 0.08 0.05 0.05 0.05 0.03 0.02
0.00 0.00 0.00 0.00 0.00 0.00 0.00 0.00 0.00 0.01 0.01 0.00 0.01 0.02 0.04 0.05 0.05 0.03 0.04 0.07 0.09 0.08 0.09 0.11 0.12 0.12 0.11 0.11 0.09 0.07 0.07 0.10 0.13 0.17 0.21 0.24 0.24 0.18 0.10 0.06 0.07 0.05 0.02
0.00 0.00 0.00 0.00 0.00 0.00 0.00 0.00 0.00 0.00 0.01 0.01 0.01 0.01 0.01 0.03 0.04 0.05 0.03 0.06 0.08 0.09 0.07 0.07 0.09 0.10 0.11 0.11 0.11 0.08 0.07 0.07 0.09 0.13 0.16 0.20 0.22 0.22 0.17 0.10 0.10 0.10 0.07
0.00 0.00 0.00 0.00 0.00 0.00 0.00 0.00 0.00 0.00 0.01 0.01 0.01 0.01 0.01 0.02 0.02 0.04 0.04 0.06 0.09 0.10 0.10 0.09 0.08 0.09 0.10 0.10 0.08 0.08 0.08 0.07 0.07 0.08 0.10 0.14 0.16 0.19 0.19 0.16 0.13 0.12 0.11
0.00 0.00 0.00 0.00 0.00 0.00 0.00 0.00 0.00 0.00 0.01 0.01 0.01 0.01 0.01 0.01 0.01 0.03 0.03 0.05 0.09 0.12 0.12 0.13 0.12 0.11 0.10 0.12 0.11 0.09 0.07 0.07 0.07 0.08 0.08 0.09 0.10 0.12 0.15 0.16 0.15 0.15 0.14
0.00 0.00 0.00 0.00 0.00 0.00 0.00 0.00 0.00 0.00 0.00 0.00 0.00 0.01 0.01 0.01 0.01 0.02 0.02 0.03 0.05 0.09 0.12 0.15 0.18 0.15 0.12 0.13 0.14 0.14 0.11 0.09 0.09 0.10 0.09 0.08 0.08 0.08 0.09 0.10 0.10 0.10 0.10
0.00 0.00 0.00 0.00 0.00 0.00 0.00 0.00 0.00 0.00 0.00 0.00 0.00 0.00 0.00 0.00 0.00 0.01 0.02 0.02 0.03 0.05 0.08 0.11 0.17 0.18 0.13 0.11 0.13 0.14 0.14 0.13 0.12 0.11 0.11 0.11 0.10 0.08 0.07 0.07 0.06 0.06 0.04
0.00 0.00 0.00 0.00 0.00 0.00 0.00 0.00 0.00 0.00 0.00 0.00 0.00 0.00 0.00 0.00 0.00 0.00 0.01 0.02 0.03 0.04 0.05 0.07 0.10 0.11 0.10 0.09 0.11 0.13 0.15 0.16 0.15 0.12 0.10 0.11 0.12 0.11 0.09 0.08 0.06 0.04 0.03
0.00 0.00 0.00 0.00 0.00 0.00 0.00 0.00 0.00 0.00 0.00 0.00 0.00 0.00 0.00 0.00 0.00 0.00 0.00 0.01 0.02 0.04 0.04 0.04 0.06 0.07 0.09 0.10 0.10 0.13 0.15 0.18 0.17 0.14 0.12 0.11 0.12 0.12 0.11 0.09 0.07 0.05 0.03
0.00 0.00 0.00 0.00 0.00 0.00 0.00 0.00 0.00 0.00 0.00 0.00 0.00 0.00 0.00 0.00 0.00 0.00 0.00 0.00 0.01 0.02 0.03 0.03 0.04 0.06 0.09 0.11 0.11 0.11 0.13 0.15 0.18 0.16 0.14 0.13 0.12 0.12 0.11 0.10 0.08 0.06 0.04
0.00 0.00 0.00 0.00 0.00 0.00 0.00 0.00 0.00 0.00 0.01 0.01 0.01 0.01 0.01 0.01 0.01 0.01 0.01 0.00 0.01 0.01 0.02 0.03 0.03 0.05 0.08 0.12 0.15 0.14 0.13 0.13 0.15 0.17 0.17 0.16 0.15 0.13 0.12 0.11 0.09 0.07 0.05
0.00 0.00 0.00 0.00 0.00 0.00 0.00 0.00 0.00 0.01 0.01 0.01 0.01 0.01 0.01 0.01 0.01 0.01 0.01 0.01 0.01 0.01 0.01 0.02 0.03 0.04 0.06 0.10 0.14 0.16 0.19 0.18 0.18 0.16 0.16 0.16 0.16 0.14 0.13 0.11 0.09 0.07 0.05
0.00 0.00 0.00 0.00 0.00 0.00 0.00 0.00 0.00 0.00 0.01 0.01 0.01 0.01 0.01 0.00 0.00 0.00 0.00 0.01 0.01 0.01 0.01 0.01 0.02 0.04 0.05 0.08 0.12 0.16 0.19 0.25 0.24 0.19 0.17 0.15 0.14 0.13 0.11 0.10 0.08 0.06 0.05
0.00 0.00 0.00 0.00 0.00 0.00 0.00 0.00 0.00 0.00 0.00 0.01 0.01 0.01 0.01 0.00 0.00 0.00 0.00 0.00 0.00 0.01 0.01 0.01 0.01 0.02 0.05 0.09 0.13 0.19 0.22 0.22 0.22 0.19 0.18 0.19 0.15 0.15 0.11 0.08 0.06 0.05 0.04
0.00 0.00 0.00 0.00 0.00 0.00 0.00 0.00 0.00 0.00 0.00 0.00 0.01 0.02 0.01 0.00 0.00 0.00 0.00 0.00 0.00 0.00 0.00 0.01 0.01 0.02 0.03 0.07 0.13 0.18 0.25 0.26 0.23 0.19 0.17 0.21 0.21 0.17 0.13 0.10 0.08 0.05 0.04
0.00 0.00 0.00 0.00 0.00 0.00 0.00 0.00 0.00 0.00 0.00 0.00 0.01 0.01 0.02 0.01 0.01 0.01 0.01 0.01 0.01 0.00 0.00 0.00 0.01 0.02 0.03 0.05 0.09 0.16 0.25 0.34 0.35 0.31 0.23 0.20 0.23 0.22 0.16 0.12 0.10 0.06 0.04
0.00 0.00 0.00 0.00 0.00 0.00 0.00 0.00 0.00 0.00 0.00 0.00 0.01 0.01 0.01 0.02 0.01 0.00 0.01 0.01 0.01 0.01 0.00 0.00 0.00 0.01 0.01 0.03 0.05 0.11 0.21 0.30 0.37 0.32 0.26 0.21 0.18 0.19 0.20 0.14 0.10 0.08 0.05
0.00 0.00 0.00 0.00 0.00 0.00 0.00 0.00 0.00 0.00 0.00 0.00 0.01 0.02 0.01 0.00 0.00 0.00 0.01 0.01 0.02 0.01 0.01 0.01 0.00 0.00 0.01 0.02 0.03 0.06 0.14 0.25 0.32 0.32 0.24 0.18 0.18 0.16 0.17 0.15 0.09 0.07 0.05
MSLP
1016.24 1016.10 1015.94 1015.79 1015.69 1015.67 1015.71 1015.82 1015.94 1016.04 1016.07 1016.00 1015.83 1015.61 1015.37 1015.18 1015.10 1015.16 1015.37 1015.70 1016.13 1016.58 1017.02 1017.41 1017.74 1018.01 1018.25 1018.50 1018.79 1019.14 1019.53 1019.97 1020.42 1020.86 1021.27 1021.63 1021.95 1022.24 1022.51 1022.79 1023.07 1023.38 1023.69
1016.42 1016.23 1016.02 1015.84 1015.71 1015.66 1015.69 1015.77 1015.88 1015.95 1015.94 1015.84 1015.64 1015.38 1015.09 1014.85 1014.70 1014.69 1014.83 1015.10 1015.47 1015.89 1016.32 1016.71 1017.06 1017.37 1017.66 1017.96 1018.30 1018.68 1019.12 1019.59 1020.07 1020.54 1020.97 1021.37 1021.72 1022.04 1022.34 1022.64 1022.95 1023.27 1023.60
1016.62 1016.39 1016.15 1015.93 1015.78 1015.70 1015.71 1015.77 1015.84 1015.88 1015.85 1015.71 1015.47 1015.16 1014.83 1014.52 1014.30 1014.21 1014.26 1014.45 1014.75 1015.11 1015.50 1015.88 1016.24 1016.58 1016.91 1017.26 1017.64 1018.06 1018.53 1019.03 1019.54 1020.04 1020.51 1020.94 1021.34 1021.70 1022.04 1022.38 1022.72 1023.06 1023.41
1016.81 1016.55 1016.28 1016.05 1015.88 1015.78 1015.76 1015.78 1015.82 1015.82 1015.75 1015.58 1015.31 1014.96 1014.57 1014.21 1013.91 1013.73 1013.69 1013.78 1013.98 1014.27 1014.60 1014.96 1015.31 1015.66 1016.02 1016.40 1016.82 1017.28 1017.78 1018.31 1018.85 1019.38 1019.90 1020.38 1020.82 1021.23 1021.63 1022.01 1022.39 1022.76 1023.13
1016.96 1016.68 1016.41 1016.18 1016.00 1015.88 1015.83 1015.82 1015.82 1015.77 1015.66 1015.45 1015.15 1014.76 1014.34 1013.93 1013.56 1013.30 1013.16 1013.14 1013.24 1013.43 1013.69 1013.99 1014.31 1014.66 1015.03 1015.43 1015.87 1016.36 1016.89 1017.45 1018.03 1018.60 1019.16 1019.70 1020.21 1020.68 1021.14 1021.58 1022.00 1022.40 1022.79
1017.04 1016.78 1016.53 1016.31 1016.13 1016.01 1015.94 1015.89 1015.83 1015.74 1015.58 1015.34 1015.00 1014.60 1014.15 1013.70 1013.28 1012.94 1012.71 1012.58 1012.57 1012.66 1012.82 1013.05 1013.33 1013.65 1014.01 1014.42 1014.87 1015.38 1015.93 1016.52 1017.14 1017.76 1018.37 1018.97 1019.55 1020.10 1020.62 1021.11 1021.58 1022.01 1022.42
1017.08 1016.85 1016.64 1016.45 1016.29 1016.17 1016.07 1015.98 1015.88 1015.74 1015.54 1015.26 1014.91 1014.49 1014.02 1013.55 1013.09 1012.70 1012.38 1012.15 1012.03 1012.01 1012.07 1012.22 1012.43 1012.71 1013.05 1013.45 1013.91 1014.42 1014.99 1015.61 1016.26 1016.92 1017.59 1018.25 1018.90 1019.52 1020.10 1020.65 1021.15 1021.61 1022.03
1017.08 1016.90 1016.74 1016.59 1016.47 1016.35 1016.23 1016.11 1015.96 1015.78 1015.54 1015.24 1014.87 1014.45 1013.99 1013.50 1013.03 1012.59 1012.20 1011.89 1011.67 1011.54 1011.51 1011.56 1011.70 1011.92 1012.22 1012.60 1013.05 1013.56 1014.14 1014.77 1015.44 1016.14 1016.86 1017.58 1018.28 1018.96 1019.59 1020.18 1020.71 1021.19 1021.62
1017.08 1016.95 1016.85 1016.75 1016.65 1016.54 1016.41 1016.26 1016.08 1015.86 1015.59 1015.27 1014.91 1014.50 1014.05 1013.58 1013.10 1012.63 1012.20 1011.82 1011.51 1011.29 1011.16 1011.12 1011.18 1011.35 1011.60 1011.94 1012.36 1012.86 1013.42 1014.05 1014.73 1015.45 1016.19 1016.94 1017.68 1018.40 1019.07 1019.69 1020.24 1020.73 1021.15
1017.06 1016.99 1016.94 1016.88 1016.81 1016.71 1016.58 1016.40 1016.20 1015.95 1015.67 1015.35 1015.00 1014.61 1014.19 1013.74 1013.27 1012.80 1012.34 1011.91 1011.54 1011.23 1011.02 1010.91 1010.90 1010.99 1011.19 1011.48 1011.86 1012.32 1012.85 1013.45 1014.11 1014.81 1015.55 1016.31 1017.07 1017.80 1018.49 1019.12 1019.69 1020.17 1020.60
1017.03 1017.00 1016.98 1016.96 1016.91 1016.82 1016.68 1016.49 1016.27 1016.02 1015.74 1015.43 1015.11 1014.75 1014.37 1013.96 1013.51 1013.04 1012.57 1012.12 1011.70 1011.34 1011.06 1010.88 1010.80 1010.83 1010.97 1011.20 1011.52 1011.92 1012.39 1012.94 1013.55 1014.21 1014.92 1015.65 1016.39 1017.12 1017.81 1018.44 1019.01 1019.50 1019.92
1016.95 1016.95 1016.95 1016.94 1016.90 1016.81 1016.67 1016.49 1016.26 1016.01 1015.75 1015.47 1015.18 1014.87 1014.53 1014.16 1013.74 1013.30 1012.83 1012.37 1011.92 1011.53 1011.21 1010.97 1010.84 1010.81 1010.88 1011.04 1011.29 1011.61 1012.00 1012.47 1013.00 1013.60 1014.24 1014.93 1015.63 1016.33 1017.01 1017.63 1018.19 1018.69 1019.12
1016.79 1016.80 1016.81 1016.80 1016.75 1016.67 1016.53 1016.35 1016.14 1015.90 1015.66 1015.42 1015.17 1014.90 1014.61 1014.28 1013.91 1013.49 1013.05 1012.59 1012.14 1011.73 1011.38 1011.11 1010.94 1010.85 1010.86 1010.94 1011.11 1011.34 1011.64 1012.01 1012.45 1012.95 1013.52 1014.13 1014.78 1015.44 1016.08 1016.70 1017.26 1017.76 1018.21
1016.54 1016.53 1016.53 1016.51 1016.46 1016.37 1016.24 1016.07 1015.87 1015.67 1015.46 1015.25 1015.04 1014.81 1014.56 1014.28 1013.94 1013.57 1013.15 1012.71 1012.28 1011.87 1011.51 1011.23 1011.02 1010.89 1010.84 1010.85 1010.93 1011.07 1011.27 1011.54 1011.87 1012.28 1012.75 1013.29 1013.87 1014.48 1015.09 1015.69 1016.25 1016.77 1017.24
1016.17 1016.15 1016.13 1016.10 1016.04 1015.95 1015.83 1015.67 1015.50 1015.31 1015.13 1014.95 1014.78 1014.59 1014.37 1014.12 1013.83 1013.48 1013.10 1012.70 1012.29 1011.90 1011.56 1011.27 1011.04 1010.88 1010.78 1010.73 1010.74 1010.79 1010.90 1011.07 1011.30 1011.61 1012.00 1012.45 1012.97 1013.53 1014.11 1014.69 1015.25 1015.78 1016.28
1015.71 1015.67 1015.64 1015.60 1015.54 1015.45 1015.33 1015.19 1015.04 1014.88 1014.71 1014.56 1014.40 1014.23 1014.04 1013.82 1013.55 1013.25 1012.91 1012.55 1012.18 1011.82 1011.50 1011.21 1010.98 1010.80 1010.67 1010.57 1010.52 1010.50 1010.54 1010.62 1010.78 1011.00 1011.31 1011.70 1012.15 1012.66 1013.20 1013.76 1014.32 1014.86 1015.38
1015.19 1015.14 1015.10 1015.06 1015.00 1014.92 1014.82 1014.69 1014.55 1014.40 1014.24 1014.09 1013.93 1013.77 1013.59 1013.39 1013.16 1012.89 1012.59 1012.28 1011.95 1011.64 1011.35 1011.09 1010.86 1010.67 1010.52 1010.39 1010.30 1010.24 1010.22 1010.25 1010.35 1010.52 1010.77 1011.09 1011.49 1011.95 1012.45 1012.98 1013.52 1014.06 1014.58
1014.65 1014.61 1014.58 1014.54 1014.50 1014.43 1014.34 1014.22 1014.07 1013.92 1013.75 1013.59 1013.43 1013.26 1013.09 1012.90 1012.69 1012.46 1012.21 1011.95 1011.68 1011.41 1011.15 1010.92 1010.71 1010.52 1010.36 1010.22 1010.10 1010.02 1009.98 1009.98 1010.05 1010.18 1010.39 1010.67 1011.02 1011.44 1011.89 1012.38 1012.89 1013.40 1013.92
1014.13 1014.11 1014.09 1014.07 1014.04 1013.99 1013.90 1013.78 1013.63 1013.46 1013.27 1013.09 1012.90 1012.73 1012.55 1012.38 1012.20 1012.02 1011.82 1011.61 1011.40 1011.18 1010.96 1010.75 1010.56 1010.38 1010.21 1010.07 1009.96 1009.87 1009.83 1009.83 1009.89 1010.01 1010.19 1010.44 1010.75 1011.11 1011.51 1011.95 1012.41 1012.89 1013.37
1013.66 1013.65 1013.65 1013.66 1013.64 1013.60 1013.51 1013.38 1013.22 1013.02 1012.80 1012.59 1012.38 1012.20 1012.03 1011.87 1011.73 1011.60 1011.46 1011.31 1011.15 1010.98 1010.80 1010.62 1010.44 1010.26 1010.10 1009.96 1009.85 1009.78 1009.75 1009.76 1009.83 1009.96 1010.13 1010.36 1010.63 1010.95 1011.29 1011.67 1012.07 1012.49 1012.93
1013.22 1013.23 1013.25 1013.27 1013.27 1013.23 1013.14 1012.99 1012.80 1012.57 1012.33 1012.09 1011.86 1011.67 1011.52 1011.39 1011.30 1011.22 1011.15 1011.06 1010.96 1010.84 1010.69 1010.53 1010.35 1010.18 1010.02 1009.88 1009.78 1009.72 1009.71 1009.75 1009.85 1009.99 1010.17 1010.38 1010.63 1010.89 1011.18 1011.49 1011.83 1012.19 1012.59
1012.80 1012.82 1012.86 1012.88 1012.88 1012.83 1012.73 1012.56 1012.34 1012.09 1011.82 1011.56 1011.33 1011.15 1011.01 1010.93 1010.90 1010.88 1010.88 1010.86 1010.81 1010.73 1010.61 1010.46 1010.28 1010.10 1009.93 1009.80 1009.70 1009.66 1009.68 1009.75 1009.87 1010.04 1010.23 1010.44 1010.67 1010.90 1011.15 1011.40 1011.68 1011.99 1012.34
1012.38 1012.39 1012.42 1012.44 1012.43 1012.37 1012.24 1012.05 1011.81 1011.54 1011.25 1010.99 1010.76 1010.60 1010.51 1010.48 1010.50 1010.56 1010.62 1010.66 1010.66 1010.61 1010.51 1010.36 1010.18 1009.99 1009.81 1009.67 1009.58 1009.55 1009.59 1009.69 1009.85 1010.05 1010.27 1010.49 1010.72 1010.93 1011.15 1011.37 1011.60 1011.87 1012.18
1011.91 1011.91 1011.91 1011.91 1011.88 1011.80 1011.66 1011.45 1011.20 1010.91 1010.62 1010.37 1010.16 1010.03 1009.98 1010.01 1010.09 1010.21 1010.32 1010.42 1010.46 1010.44 1010.35 1010.20 1010.01 1009.80 1009.61 1009.46 1009.36 1009.35 1009.41 1009.54 1009.74 1009.97 1010.23 1010.49 1010.73 1010.96 1011.17 1011.38 1011.59 1011.84 1012.14
1011.40 1011.35 1011.33 1011.30 1011.24 1011.14 1010.98 1010.77 1010.52 1010.23 1009.96 1009.72 1009.54 1009.45 1009.43 1009.50 1009.63 1009.79 1009.95 1010.08 1010.15 1010.15 1010.07 1009.92 1009.72 1009.50 1009.29 1009.13 1009.03 1009.03 1009.11 1009.27 1009.51 1009.79 1010.09 1010.40 1010.68 1010.95 1011.19 1011.42 1011.65 1011.91 1012.20
1010.82 1010.74 1010.68 1010.62 1010.54 1010.42 1010.26 1010.06 1009.81 1009.55 1009.30 1009.08 1008.93 1008.85 1008.86 1008.95 1009.10 1009.28 1009.46 1009.61 1009.70 1009.70 1009.63 1009.48 1009.28 1009.05 1008.84 1008.67 1008.58 1008.58 1008.68 1008.88 1009.15 1009.48 1009.84 1010.20 1010.55 1010.88 1011.18 1011.46 1011.74 1012.03 1012.35
Thickness
5731 5730 5729 5728 5729 5729 5728 5728 5728 5728 5728 5728 5729 5730 5731 5731 5731 5732 5731 5729 5727 5726 5726 5727 5728 5729 5729 5729 5729 5729 5728 5728 5727 5726 5725 5725 5724 5723 5722 5721 5720 5719 5719
5725 5724 5724 5723 5723 5723 5723 5722 5723 5723 5724 5725 5727 5727 5728 5728 5729 5728 5729 5729 5726 5725 5724 5725 5726 5727 5728 5728 5728 5729 5728 5728 5727 5726 5725 5724 5723 5723 5722 5721 5720 5719 5718
5717 5718 5719 5719 5718 5717 5716 5716 5717 5718 5719 5721 5722 5723 5724 5725 5726 5727 5727 5727 5728 5726 5725 5724 5725 5726 5727 5728 5728 5728 5728 5728 5727 5726 5725 5724 5723 5722 5721 5721 5720 5719 5718
5709 5710 5713 5714 5711 5712 5713 5713 5713 5714 5714 5715 5717 5719 5722 5722 5723 5724 5724 5725 5726 5727 5726 5725 5725 5725 5725 5726 5727 5728 5728 5728 5727 5727 5726 5725 5723 5722 5721 5721 5720 5719 5718
5702 5703 5705 5705 5704 5706 5707 5707 5709 5707 5707 5708 5711 5714 5717 5720 5721 5723 5724 5724 5724 5725 5726 5726 5724 5724 5724 5725 5727 5728 5728 5728 5727 5727 5726 5725 5724 5722 5721 5721 5720 5719 5718
5694 5695 5698 5697 5698 5700 5700 5699 5698 5698 5699 5701 5705 5709 5712 5717 5719 5721 5722 5723 5723 5723 5724 5724 5724 5724 5724 5724 5726 5727 5728 5728 5727 5727 5726 5725 5724 5723 5722 5721 5720 5719 5718
5687 5687 5690 5690 5690 5693 5692 5693 5693 5694 5694 5697 5697 5701 5709 5715 5717 5718 5719 5720 5722 5722 5721 5721 5722 5723 5726 5724 5724 5726 5727 5728 5727 5727 5726 5725 5724 5723 5722 5721 5720 5719 5719
5680 5684 5681 5683 5685 5684 5684 5685 5685 5686 5689 5691 5689 5691 5696 5705 5709 5715 5715 5715 5716 5718 5718 5718 5719 5720 5722 5725 5726 5726 5726 5727 5727 5727 5726 5725 5724 5723 5722 5721 5720 5719 5718
5675 5674 5674 5675 5676 5678 5681 5678 5678 5678 5680 5684 5685 5682 5683 5688 5695 5705 5707 5709 5709 5710 5712 5714 5715 5717 5718 5721 5724 5725 5725 5726 5727 5726 5725 5725 5724 5723 5722 5721 5720 5719 5719
5671 5670 5670 5669 5669 5672 5672 5672 5676 5673 5671 5675 5679 5678 5677 5678 5677 5686 5696 5701 5703 5703 5706 5708 5711 5713 5714 5716 5720 5722 5723 5724 5725 5725 5724 5724 5723 5722 5722 5721 5720 5719 5719
5669 5668 5666 5665 5664 5665 5665 5663 5664 5664 5666 5667 5669 5671 5672 5673 5673 5672 5678 5686 5692 5697 5700 5702 5706 5708 5710 5712 5715 5718 5719 5720 5722 5723 5723 5723 5722 5722 5721 5721 5720 5720 5719
5670 5667 5663 5661 5660 5660 5658 5657 5656 5658 5657 5657 5658 5662 5664 5665 5667 5668 5670 5674 5680 5688 5692 5695 5700 5703 5705 5707 5710 5714 5715 5717 5718 5720 5721 5721 5721 5722 5721 5721 5721 5720 5720
5669 5665 5661 5657 5656 5654 5652 5651 5650 5650 5650 5648 5648 5651 5655 5657 5659 5660 5661 5666 5671 5678 5683 5688 5693 5697 5699 5702 5705 5707 5710 5713 5714 5716 5718 5719 5720 5721 5721 5720 5721 5721 5721
5665 5660 5656 5653 5651 5649 5648 5646 5645 5645 5643 5641 5641 5641 5642 5647 5650 5651 5652 5655 5659 5668 5675 5679 5684 5688 5691 5694 5698 5700 5705 5708 5711 5713 5715 5717 5718 5719 5720 5721 5721 5722 5721
5661 5657 5653 5650 5647 5644 5642 5639 5640 5636 5635 5634 5635 5635 5634 5638 5640 5642 5644 5646 5647 5652 5661 5670 5673 5678 5681 5686 5691 5695 5700 5704 5707 5709 5711 5714 5716 5718 5720 5721 5721 5722 5722
5656 5652 5649 5646 5643 5640 5637 5633 5632 5632 5627 5625 5624 5622 5621 5625 5629 5631 5634 5637 5640 5643 5649 5659 5663 5668 5672 5678 5684 5688 5693 5698 5702 5705 5708 5710 5712 5715 5718 5720 5721 5722 5722
5652 5649 5645 5642 5638 5635 5632 5628 5626 5623 5620 5618 5616 5615 5613 5613 5615 5620 5624 5627 5631 5635 5639 5648 5655 5660 5663 5668 5676 5681 5687 5692 5696 5699 5703 5705 5709 5711 5715 5718 5720 5721 5722
5649 5646 5641 5637 5633 5630 5626 5621 5618 5616 5613 5610 5608 5607 5605 5606 5606 5607 5611 5615 5620 5625 5628 5635 5644 5650 5654 5660 5667 5672 5679 5686 5689 5693 5696 5699 5703 5707 5710 5714 5717 5718 5720
5645 5641 5636 5631 5627 5623 5619 5615 5611 5608 5605 5603 5601 5599 5598 5597 5596 5599 5600 5604 5610 5616 5620 5626 5633 5641 5646 5652 5658 5663 5670 5676 5681 5684 5688 5692 5696 5701 5705 5709 5712 5714 5716
5641 5636 5631 5626 5621 5616 5612 5608 5605 5601 5598 5596 5594 5592 5591 5590 5589 5589 5591 5593 5598 5603 5609 5615 5623 5632 5638 5645 5649 5654 5660 5666 5672 5677 5680 5685 5689 5693 5698 5703 5706 5709 5711
5636 5631 5625 5619 5614 5609 5607 5603 5597 5594 5591 5589 5587 5586 5585 5583 5582 5580 5583 5587 5589 5593 5600 5608 5615 5622 5630 5635 5641 5647 5651 5657 5662 5668 5673 5677 5682 5686 5690 5694 5699 5702 5704
5630 5624 5618 5612 5607 5603 5599 5590 5584 5583 5582 5581 5580 5579 5579 5577 5575 5571 5570 5571 5573 5580 5589 5595 5604 5611 5618 5626 5632 5637 5642 5646 5652 5661 5665 5668 5675 5679 5684 5689 5693 5695 5697
5624 5617 5611 5605 5600 5595 5589 5582 5575 5572 5574 5575 5574 5572 5573 5575 5571 5570 5568 5565 5566 5568 5571 5578 5590 5598 5607 5615 5622 5628 5633 5639 5647 5653 5657 5658 5664 5669 5674 5678 5683 5686 5689
5617 5611 5604 5599 5593 5589 5583 5576 5569 5566 5568 5569 5569 5567 5566 5565 5564 5563 5563 5565 5566 5568 5569 5571 5577 5587 5594 5601 5609 5617 5624 5631 5638 5644 5649 5650 5653 5657 5661 5667 5671 5675 5679
5610 5604 5599 5594 5588 5584 5578 5570 5562 5564 5567 5566 5565 5564 5561 5559 5556 5552 5551 5554 5558 5561 5563 5565 5570 5576 5581 5587 5594 5604 5614 5620 5627 5634 5639 5643 5643 5645 5649 5654 5659 5664 5669
5604 5598 5594 5589 5584 5580 5574 5566 5558 5559 5562 5563 5562 5560 5555 5552 5548 5543 5543 5546 5549 5553 5556 5562 5563 5567 5573 5579 5585 5592 5604 5612 5620 5626 5630 5635 5636 5637 5638 5641 5647 5652 5657